Wind_Speed
47 47 47 45 43 44 46 48 49 48 46 45 45 46 48 49 51 52 52 51 52 52 51 50 51 52 54 55 55 58 61 62 61 61 60 60 61 60 59 59 60 60 60 59 58 58 58 58 58 59 59 59 59 59 57 55 55 59 60 60 62 64 65 67 68 68 67 65 64 64 66 68 69 70 71 73 75 76 78 79 79 80 80 78 76 74 72
47 49 51 51 48 48 49 49 50 50 47 43 39 39 42 46 50 53 53 53 53 52 52 52 52 53 55 56 58 59 60 62 62 61 61 61 61 61 61 61 61 60 59 58 58 59 59 59 60 60 59 59 60 60 58 55 55 57 58 57 58 59 60 62 64 66 67 66 65 65 66 67 69 71 72 74 76 76 77 78 78 78 77 75 74 74 74
47 49 52 54 54 53 52 51 50 51 50 45 38 32 31 36 46 52 54 54 54 54 53 53 53 54 54 55 57 57 57 58 59 60 60 60 61 61 62 62 61 60 60 59 59 59 59 60 60 61 61 62 63 63 63 61 59 60 61 60 60 61 61 62 62 64 66 68 68 69 70 71 72 72 73 74 75 76 77 77 78 78 77 76 76 75 75
47 49 52 54 56 56 55 54 53 52 52 50 46 42 37 36 39 46 51 54 54 53 53 54 54 54 54 55 56 57 57 57 57 57 57 59 59 60 60 61 60 60 60 60 59 59 60 60 61 61 62 62 63 63 63 63 63 63 64 64 65 66 67 67 67 67 68 69 70 70 71 72 73 74 74 74 74 74 75 75 76 77 77 76 75 73 72
48 49 51 54 55 56 55 55 56 56 56 55 54 52 50 47 46 47 49 52 53 52 54 55 55 55 56 58 59 59 61 61 59 57 57 57 58 58 58 57 58 58 57 57 57 58 58 59 60 61 61 61 61 62 62 62 63 63 64 65 66 67 68 68 69 69 70 70 70 70 70 71 72 72 72 72 72 72 72 72 73 74 74 73 72 70 68
53 52 52 53 54 54 54 56 58 58 59 60 59 58 57 57 56 55 53 52 53 55 56 56 56 55 56 59 62 63 63 63 62 60 58 57 58 57 56 55 55 56 56 57 58 58 59 60 60 61 61 61 61 62 62 62 63 63 64 64 65 66 67 68 69 70 70 70 71 71 70 70 70 70 70 70 71 71 70 70 72 72 71 71 69 68 67
55 54 54 53 52 52 54 58 60 60 59 60 61 61 62 61 61 62 60 57 56 57 58 57 57 56 56 58 60 62 63 63 62 61 60 58 57 57 56 55 55 56 59 61 61 61 61 61 61 62 62 63 63 63 64 64 64 64 64 64 65 66 67 68 69 70 71 72 72 72 72 72 71 71 71 71 72 71 70 70 71 72 72 71 70 69 69
56 57 57 55 54 54 55 57 59 59 59 60 62 63 64 64 64 65 65 63 61 61 60 60 60 60 59 59 60 62 63 62 61 61 61 60 59 58 57 56 55 56 60 63 63 62 62 62 63 64 64 64 64 64 65 65 66 66 65 65 66 68 68 69 70 71 71 73 73 73 73 73 73 72 72 73 72 72 71 71 71 72 72 72 71 70 70
61 61 59 58 57 57 58 58 60 60 59 61 63 64 63 64 64 65 65 62 62 62 62 63 64 65 63 62 63 63 63 63 63 62 62 62 61 60 59 59 58 58 60 63 63 63 64 65 66 67 67 67 67 66 66 67 67 68 67 68 69 69 69 70 71 71 72 73 74 73 73 73 73 73 73 73 73 73 72 72 73 73 73 73 72 72 72
64 63 61 60 60 61 61 61 61 61 61 62 64 64 63 64 64 64 62 61 60 60 61 62 64 64 64 63 63 64 65 65 65 65 65 64 64 64 63 62 62 62 62 63 64 65 65 66 67 68 69 70 70 69 69 69 70 70 71 71 71 71 71 72 73 73 74 75 74 74 74 74 74 73 73 74 74 74 74 74 74 74 75 74 74 74 74
64 63 63 63 63 64 65 64 64 65 66 66 66 65 64 65 65 63 60 61 61 60 59 60 60 60 60 60 61 63 65 67 67 67 67 66 66 67 66 66 66 66 65 65 66 67 67 67 68 69 70 71 72 73 72 72 73 73 73 73 73 73 73 73 73 74 74 74 73 72 72 72 72 72 72 72 73 73 73 73 74 74 74 74 74 75 74
65 65 66 66 67 68 68 66 67 70 71 69 68 66 66 66 65 62 60 61 62 61 60 60 59 57 57 57 59 62 64 65 66 66 66 66 66 66 66 66 67 66 66 67 67 68 69 69 70 71 72 73 74 74 74 74 74 74 75 74 73 74 74 73 73 72 72 72 71 69 69 68 67 67 67 67 68 68 68 68 69 69 70 70 70 71 71
69 70 69 69 70 71 70 69 70 71 73 72 69 67 66 65 63 61 61 62 62 62 61 61 60 58 58 59 61 63 63 64 64 65 65 65 65 65 65 65 66 66 66 67 68 68 69 70 71 73 74 75 75 76 76 75 75 75 75 75 74 74 74 73 73 73 73 73 72 71 69 67 66 65 65 64 65 65 65 65 65 66 66 67 67 67 68
72 73 72 72 72 73 72 72 72 73 74 74 72 69 68 66 64 63 64 63 63 64 64 64 63 62 62 62 64 64 64 64 64 65 65 65 65 65 64 65 65 65 66 66 67 69 70 71 72 74 75 76 77 77 77 77 77 76 76 75 75 75 75 75 75 75 76 76 76 75 74 72 70 68 67 67 67 67 67 67 67 67 67 68 68 68 69
74 75 75 75 75 75 74 74 74 74 75 75 75 74 71 69 67 67 68 67 67 67 67 67 67 67 67 67 67 67 67 66 66 66 66 65 65 66 66 66 67 67 67 67 68 69 70 71 72 73 75 76 77 77 78 77 77 77 76 76 76 77 77 77 78 78 79 79 79 80 79 78 77 75 74 74 73 72 72 72 71 71 71 71 71 71 71
76 77 78 78 77 77 77 78 78 78 77 78 78 77 75 73 72 71 72 72 71 71 71 71 72 71 71 71 70 70 70 69 69 69 68 68 68 68 68 68 69 69 70 70 70 71 72 73 73 74 75 76 77 77 78 78 78 77 77 77 77 78 79 79 80 80 81 81 82 82 83 83 82 81 80 80 79 78 77 76 75 75 74 74 75 75 75
78 78 79 80 80 79 80 81 81 81 81 80 80 80 80 78 77 75 75 76 76 77 77 77 76 76 76 75 74 73 73 73 72 72 72 72 72 72 72 72 72 73 73 73 73 74 74 75 76 76 77 77 78 79 79 80 80 79 79 79 79 79 80 80 81 82 83 84 84 85 86 86 86 85 85 84 84 83 83 82 81 79 78 78 78 79 79
81 81 81 82 82 82 82 83 83 83 83 82 83 83 83 82 80 79 79 79 80 80 80 80 79 79 79 78 77 76 76 75 75 75 75 76 76 76 76 76 76 76 76 76 76 76 77 78 78 78 79 79 80 81 81 81 82 81 81 81 81 81 82 83 84 85 85 86 87 87 88 88 88 88 88 87 87 87 86 86 85 84 83 82 81 82 83
83 83 84 85 85 84 84 84 84 85 85 84 85 85 85 84 83 82 82 82 82 82 82 82 82 82 82 81 80 80 79 78 78 78 78 79 79 79 79 79 79 79 79 79 79 80 81 81 81 82 83 83 84 84 84 84 83 83 83 83 83 83 84 85 86 87 88 88 89 89 90 90 89 89 89 89 88 88 88 88 87 86 85 84 83 84 85
80 82 83 85 86 86 85 85 86 86 87 87 87 87 87 86 85 85 85 85 84 84 85 85 85 85 85 84 83 83 82 82 81 81 82 83 83 82 82 82 83 83 83 83 83 84 85 85 85 86 87 87 88 88 87 88 88 87 87 87 87 88 88 89 89 90 91 92 92 92 93 92 92 91 91 91 91 90 90 90 89 87 86 85 85 85 86
74 76 78 80 82 84 85 86 87 88 89 89 89 89 89 88 88 87 87 87 87 87 87 87 88 88 88 88 87 86 85 84 84 84 85 86 86 86 86 86 86 87 87 87 88 89 89 89 90 90 91 91 91 91 90 90 91 91 91 92 92 92 92 93 93 93 94 94 95 94 94 94 94 93 93 93 93 92 91 90 89 88 86 86 84 83 85
69 70 71 74 76 78 80 82 84 86 88 89 89 89 90 90 90 90 90 90 90 90 90 90 90 90 90 91 91 90 88 87 86 86 87 88 89 89 89 89 90 90 91 91 92 93 93 93 93 93 93 93 93 93 93 93 93 93 93 93 94 94 94 95 95 95 95 95 95 94 94 93 93 92 91 91 91 91 91 90 88 87 86 85 83 82 83
63 64 66 67 69 71 73 76 78 81 82 84 86 87 88 89 90 90 90 90 90 90 91 91 91 91 92 92 92 92 91 89 88 88 89 89 90 90 91 91 92 92 93 93 94 94 94 94 94 94 93 93 93 93 93 93 93 92 92 93 93 94 94 94 94 94 94 94 94 93 93 92 92 91 90 89 89 90 90 89 87 86 85 84 82 81 81
58 59 60 62 64 65 67 68 71 73 75 77 79 81 82 84 85 86 86 87 87 88 88 89 89 89 90 91 91 91 90 89 87 87 87 87 88 89 90 91 91 91 92 92 92 93 92 92 92 91 91 91 91 91 90 90 89 90 90 90 91 91 91 91 91 91 91 91 91 92 91 91 90 90 89 88 88 88 89 88 86 85 84 83 82 80 79
54 55 56 58 59 60 61 61 63 66 69 70 72 74 76 77 78 79 80 81 82 82 83 84 84 85 86 86 87 87 87 86 85 84 84 84 84 85 86 87 88 88 89 89 90 90 90 89 89 89 89 88 88 87 87 87 87 88 88 88 88 88 88 87 88 88 88 88 89 89 89 88 88 88 87 86 85 84 84 84 83 82 81 79 78 77 76
50 51 53 55 56 57 57 57 58 61 63 64 65 67 69 71 71 72 74 75 76 76 77 78 79 80 81 81 81 81 82 81 81 81 81 80 81 81 82 82 83 84 85 85 86 87 87 87 87 87 86 86 85 85 85 86 86 86 86 86 85 85 84 84 84 84 84 84 84 84 84 83 82 82 81 80 79 77 76 76 76 75 75 74 73 71 71
45 47 50 51 52 54 54 54 56 57 59 61 62 63 64 65 66 67 68 69 70 70 71 71 72 74 74 75 75 76 76 77 77 77 77 77 77 78 78 78 78 79 80 80 81 82 83 83 84 84 84 83 83 83 84 84 83 83 82 82 81 80 79 78 78 78 78 78 78 78 78 77 77 76 75 74 73 71 70 70 70 70 70 71 69 68 68
41 43 45 47 48 50 52 52 53 54 56 58 59 59 59 61 62 63 63 64 65 65 66 66 67 68 68 69 70 70 71 71 72 72 73 73 73 74 74 74 74 74 75 75 76 76 77 77 78 78 78 78 78 79 79 79 78 78 78 77 76 76 75 74 74 74 74 74 74 74 74 73 73 72 71 69 68 66 65 65 65 65 66 66 65 64 66
37 39 41 43 44 47 48 48 49 50 52 54 55 55 55 57 58 59 60 61 61 61 62 63 64 64 65 65 66 66 67 67 68 68 69 69 69 70 70 70 70 71 71 71 71 72 72 72 72 72 72 72 72 73 73 73 73 73 73 73 72 72 71 71 71 70 70 70 70 70 69 69 68 67 65 65 63 61 61 61 61 61 61 61 60 61 64
34 36 37 39 40 42 44 44 45 46 48 50 51 52 52 53 54 54 55 56 57 57 58 59 60 61 61 62 63 63 64 64 65 65 66 66 66 66 66 67 67 67 67 67 67 67 67 67 67 67 67 67 67 68 68 68 68 68 68 68 67 67 67 67 67 67 66 66 66 66 66 65 64 62 61 61 60 58 57 58 58 57 57 57 57 58 60
34 34 35 35 37 38 39 40 42 43 44 46 47 47 48 49 50 50 51 52 53 53 54 55 56 57 57 58 59 60 61 62 62 63 63 63 64 64 64 64 64 64 64 64 64 64 64 63 63 63 63 62 63 63 63 63 63 63 63 63 63 64 64 64 64 64 64 64 64 64 63 62 61 60 59 58 57 56 55 55 55 55 55 55 55 55 55
34 34 34 34 35 36 37 38 39 40 41 42 43 44 44 45 46 47 48 48 49 50 50 51 52 53 53 54 55 56 57 58 59 59 60 61 61 62 62 62 61 61 61 62 61 61 61 60 60 59 59 59 60 60 60 60 60 60 60 61 61 61 61 61 61 62 62 62 62 61 60 59 58 57 56 55 54 53 52 52 52 53 53 52 52 52 53
34 34 34 34 35 36 36 36 38 39 40 41 42 42 43 43 44 45 46 46 46 47 48 48 49 49 50 50 51 52 53 54 55 56 57 57 58 59 59 59 59 59 59 59 59 58 58 57 57 57 57 57 58 57 57 57 57 57 58 58 58 58 59 59 59 59 59 58 58 57 56 55 55 54 53 52 51 51 50 49 49 49 50 50 50 51 52
34 34 34 34 35 36 36 36 37 38 39 40 40 41 41 42 42 43 43 44 44 45 45 46 47 47 47 47 48 49 50 50 51 51 52 53 54 54 55 55 56 56 56 56 56 55 55 55 54 54 54 54 55 54 54 54 54 54 54 55 55 55 56 55 55 55 54 54 53 52 51 51 51 50 49 49 49 48 47 47 46 47 47 49 49 49 48
33 33 34 35 35 35 36 36 37 37 38 39 39 39 39 40 40 41 41 42 42 43 43 44 44 44 44 45 45 46 47 47 48 48 49 49 49 50 51 51 52 52 52 53 52 52 52 52 51 51 51 51 51 51 51 51 51 51 51 51 52 52 52 52 51 50 49 49 48 47 48 49 48 47 46 46 46 45 45 44 44 44 45 46 45 44 43
32 32 33 34 34 35 35 36 36 37 37 38 37 37 37 38 39 39 40 40 40 41 41 42 42 42 42 42 43 43 44 45 45 46 46 46 46 46 47 47 47 48 48 49 49 49 49 48 48 47 47 48 48 48 48 48 48 48 48 48 48 48 48 47 47 46 45 44 44 44 45 46 46 44 43 43 43 42 41 41 41 41 42 42 41 40 40
31 31 32 33 33 33 34 35 36 36 36 36 36 36 36 37 38 38 39 39 39 40 40 40 40 40 40 40 40 41 41 42 43 43 44 44 44 44 44 44 44 44 45 45 45 45 45 45 45 44 44 45 45 45 45 45 45 45 45 45 45 45 44 44 43 42 41 41 41 41 41 43 44 41 39 40 40 39 38 38 38 38 39 39 38 37 38
29 29 30 30 31 31 32 34 34 34 34 35 35 35 35 36 37 37 37 38 38 38 39 39 39 39 39 39 39 39 39 40 40 41 41 41 41 41 41 42 41 41 42 42 42 42 43 43 42 42 42 42 42 42 42 42 42 42 42 41 41 41 41 41 40 40 39 38 38 38 38 39 41 40 37 36 37 37 36 36 36 36 36 36 36 36 36
28 28 27 28 28 30 31 32 32 32 32 33 33 34 35 35 36 36 36 36 37 37 37 37 37 37 37 37 37 37 37 38 38 38 38 38 38 39 39 39 39 39 39 39 39 40 40 40 40 39 39 39 39 39 40 40 40 40 39 38 38 38 39 38 38 37 36 36 36 36 35 36 37 38 36 34 34 35 35 34 34 34 34 34 34 34 34
28 27 26 26 27 28 29 30 31 31 31 31 32 33 34 34 35 35 35 35 35 35 35 36 36 35 35 35 36 36 36 36 36 36 36 36 36 36 36 36 36 37 37 37 37 37 37 37 38 38 37 37 37 37 37 37 38 37 37 36 36 36 36 36 36 35 35 34 34 34 34 33 34 35 35 34 32 32 33 33 32 32 31 31 31 32 32
28 27 26 26 26 27 29 30 30 30 30 30 30 31 32 33 34 34 34 34 34 34 34 34 34 34 34 34 34 34 34 34 34 34 34 34 34 34 34 34 35 35 35 35 35 35 35 35 35 36 36 36 36 36 35 35 35 35 35 35 35 34 34 35 35 34 33 33 33 33 33 33 32 32 33 33 31 30 30 31 30 30 29 29 29 29 30
28 27 26 26 26 26 28 29 29 29 29 29 30 31 31 32 32 32 33 33 33 33 33 33 33 33 33 33 33 33 33 33 33 33 32 32 32 32 32 32 33 34 34 33 34 34 34 33 34 35 35 35 35 35 35 34 34 34 33 33 33 33 33 34 34 33 32 31 31 32 32 32 30 29 29 30 30 29 28 28 28 28 28 27 27 27 28
27 26 26 25 25 25 26 27 28 29 29 29 29 30 30 30 30 31 31 32 32 32 32 33 33 32 32 32 32 32 32 32 32 31 31 31 31 31 31 31 32 32 32 32 32 33 33 32 33 33 34 34 34 34 34 34 33 33 33 33 33 33 32 32 32 32 31 30 29 29 30 30 30 28 27 26 27 27 27 26 25 25 26 26 26 26 26
26 25 25 25 25 25 25 27 28 28 28 29 29 29 29 29 29 29 30 31 31 32 32 32 32 32 31 31 31 31 31 31 31 30 30 30 30 30 31 31 31 31 31 31 31 32 32 32 32 32 33 33 33 33 33 33 33 33 32 32 32 32 32 31 31 31 30 29 28 27 27 27 28 27 26 25 24 24 24 24 24 24 24 24 24 24 24
25 25 25 25 25 24 24 25 27 28 28 28 29 29 29 29 29 29 29 30 31 31 31 31 31 31 31 30 30 30 30 30 30 30 30 30 30 30 30 30 31 31 31 31 31 31 32 32 32 32 32 32 32 32 32 33 33 33 33 32 32 32 31 31 30 30 29 28 27 25 24 24 25 26 26 24 23 22 22 22 22 22 22 22 22 22 23
25 25 25 24 25 24 24 25 26 27 28 28 28 29 29 30 29 29 29 30 30 31 31 31 31 31 30 30 29 29 29 29 30 30 30 30 30 30 30 30 31 31 31 31 31 31 31 31 31 31 31 31 31 31 32 32 32 33 33 32 32 32 31 31 30 29 29 28 27 25 23 22 22 22 23 24 23 22 20 20 20 20 21 21 21 22 22
25 25 25 25 25 25 24 24 25 26 27 28 28 29 29 30 30 29 29 29 30 30 30 31 31 30 30 30 29 29 28 28 29 29 29 29 30 30 30 30 30 31 31 31 31 31 31 31 31 31 31 31 31 31 31 31 31 32 32 32 32 32 32 31 30 29 29 28 27 26 25 23 21 21 21 22 22 22 21 20 19 19 19 19 20 21 22
24 25 25 25 25 25 25 25 25 26 27 28 29 29 29 29 30 29 29 29 29 30 30 30 30 30 30 30 29 29 28 28 28 29 29 29 30 30 30 30 30 31 31 31 31 31 31 31 31 31 30 30 30 30 31 31 31 31 31 31 31 31 31 31 30 30 29 28 28 27 26 25 23 22 21 21 21 21 21 20 19 19 18 18 19 19 20
25 25 25 26 26 26 25 25 25 26 26 28 29 29 29 29 30 29 29 29 29 29 30 30 30 30 30 30 29 29 29 29 28 28 29 29 29 30 30 30 30 31 31 31 31 32 32 32 31 31 31 30 30 30 30 30 30 30 30 30 30 30 31 31 30 30 30 29 29 28 27 26 25 24 23 22 21 21 20 20 20 19 19 18 18 18 19
26 26 26 26 26 26 26 26 26 26 26 27 29 29 29 29 29 29 29 29 29 29 29 30 30 30 30 30 30 30 30 30 29 29 29 29 29 29 30 30 30 31 31 31 31 31 32 32 32 32 31 31 31 30 30 30 30 30 30 30 30 30 30 30 30 30 30 30 29 29 28 27 26 25 25 24 23 22 21 20 20 20 19 19 19 19 19
26 26 27 27 27 27 27 26 26 26 26 27 28 29 30 30 30 30 29 30 30 30 29 29 30 30 30 30 30 31 31 31 30 30 29 29 29 29 29 29 30 30 30 31 31 31 31 32 32 32 32 31 31 31 30 30 30 30 30 30 30 30 30 30 30 29 29 29 29 29 28 28 27 26 25 25 24 23 23 22 21 21 20 20 20 20 19
27 26 27 27 28 29 29 28 28 27 27 28 28 29 29 30 30 30 29 30 31 31 30 30 30 30 30 31 31 31 32 32 32 31 30 30 29 29 29 29 29 29 30 30 30 31 31 31 32 32 32 32 32 31 31 31 31 30 30 30 30 30 29 29 30 29 29 29 28 28 28 27 27 26 26 25 24 24 24 23 23 23 22 21 21 21 21
Wind_Direction
228 226 227 231 236 235 233 234 238 240 239 239 241 242 241 242 244 245 245 245 246 248 248 246 245 243 240 237 237 238 241 244 245 245 246 247 249 251 252 253 253 253 253 252 252 252 252 251 251 251 251 251 250 250 251 252 253 253 251 249 249 249 248 248 250 253 256 257 258 258 258 257 257 257 258 258 259 260 261 262 264 265 267 269 270 272 274
233 230 229 229 232 234 235 235 237 240 239 236 238 243 246 246 246 245 244 244 246 247 248 247 246 246 246 245 243 242 243 245 246 247 248 249 251 252 253 254 255 255 254 254 255 255 255 255 255 255 255 254 253 253 253 252 252 254 254 252 250 249 249 249 249 250 252 253 255 256 256 257 257 259 260 260 261 261 263 264 265 266 268 270 271 273 275
238 235 234 233 232 235 237 237 238 241 240 235 228 229 236 244 247 247 246 245 246 246 247 247 248 249 250 251 250 247 245 245 246 248 249 249 250 252 253 254 255 255 255 256 257 257 257 257 258 258 258 257 257 257 257 256 254 253 253 253 251 250 250 251 251 251 251 251 252 253 255 256 257 259 260 260 261 261 263 264 265 267 268 269 271 273 274
238 237 236 236 236 236 237 238 239 242 243 240 231 224 222 229 240 244 244 243 244 245 246 245 246 247 248 250 252 251 250 249 248 249 250 251 252 252 253 254 255 256 257 258 258 258 259 259 259 259 258 258 258 259 259 259 257 255 254 253 253 253 253 253 253 253 253 253 253 253 254 255 257 258 260 261 261 261 262 263 264 265 266 267 269 270 271
235 236 237 238 238 238 238 238 239 240 242 243 240 235 230 229 233 239 239 239 240 242 242 242 242 244 246 248 250 251 252 253 252 252 253 253 254 254 254 256 257 258 260 261 261 261 260 260 259 259 258 258 258 258 258 258 258 257 256 255 255 255 255 255 255 255 255 255 255 255 255 256 257 258 260 261 262 263 263 263 264 264 265 266 267 268 269
234 235 236 237 239 240 241 241 240 239 240 242 242 242 239 236 236 239 240 239 239 240 241 242 242 242 244 246 248 249 251 252 254 255 255 254 254 255 256 257 258 259 262 262 262 261 261 260 260 259 259 259 259 258 258 258 258 257 257 257 256 256 256 256 256 256 256 257 257 257 258 259 259 259 261 262 263 264 265 265 266 267 267 267 268 268 268
235 236 236 236 237 239 240 241 242 241 240 241 242 243 243 242 241 242 243 242 242 243 245 246 245 244 244 245 247 249 251 252 254 255 257 257 257 257 258 258 258 260 262 262 261 261 261 261 261 260 260 260 260 260 260 259 259 258 258 258 258 257 257 257 257 257 257 257 258 258 259 260 261 262 262 263 264 265 265 266 267 268 268 269 269 269 269
237 238 238 237 236 237 239 240 243 243 243 243 243 243 243 244 244 244 244 243 243 244 245 247 247 248 247 247 248 250 252 254 255 256 257 259 259 259 259 259 260 261 262 263 264 264 264 264 264 263 262 262 262 262 262 262 262 261 260 260 259 259 258 258 258 258 258 258 259 259 259 260 261 262 263 263 264 264 265 265 265 266 267 267 268 268 268
238 239 239 239 238 238 239 239 241 242 243 244 245 245 245 245 245 246 246 246 245 245 246 247 248 249 249 250 251 252 254 255 256 257 258 259 260 260 260 260 260 260 261 264 266 266 267 267 267 266 265 264 263 262 263 263 264 264 263 262 261 261 261 260 260 260 260 259 260 260 261 261 261 262 262 263 263 264 264 264 264 264 264 265 266 267 267
239 240 240 240 240 240 240 240 240 241 242 243 245 246 246 247 247 248 249 249 248 247 246 247 248 250 251 252 253 254 255 256 256 257 257 258 259 259 259 259 259 258 258 259 261 262 264 266 267 267 268 268 267 267 266 266 266 266 266 265 265 265 264 263 263 262 261 261 261 262 262 262 263 263 263 263 263 263 263 263 263 263 264 264 265 266 266
240 241 241 241 242 242 242 242 242 242 241 242 244 245 247 248 249 249 250 251 252 251 249 248 248 249 251 253 254 255 255 255 256 256 256 256 257 257 258 258 258 258 258 258 259 260 262 263 264 265 266 268 269 270 271 271 270 270 271 271 270 270 269 268 267 266 266 265 264 263 263 263 263 263 263 263 263 263 263 263 264 264 264 265 265 265 266
238 239 240 241 242 243 243 243 244 245 245 244 245 246 248 250 252 253 253 253 254 254 253 253 252 251 251 252 252 253 253 254 255 255 256 256 256 256 257 257 258 258 259 259 259 260 261 262 263 264 265 266 267 269 270 270 271 272 273 273 274 273 273 273 272 272 271 269 268 265 264 263 263 263 263 264 264 264 264 264 265 265 266 266 266 267 267
235 237 238 240 242 243 244 245 245 248 250 250 249 249 250 252 254 255 256 256 257 258 257 257 256 254 253 253 253 253 253 254 255 255 256 257 257 257 257 257 257 258 258 258 259 259 260 261 261 262 263 264 265 266 268 269 270 271 272 273 274 275 275 275 274 275 274 274 272 271 269 268 267 267 267 267 268 268 267 267 267 267 267 267 268 268 269
235 237 238 239 241 243 244 246 247 248 250 252 252 251 251 252 253 254 255 256 257 258 259 259 259 258 256 256 256 256 255 256 256 257 258 259 260 260 259 259 258 258 258 257 257 258 259 259 260 261 262 263 264 265 266 267 268 269 270 271 271 272 272 272 273 274 274 275 276 276 276 276 275 275 274 273 273 273 272 272 271 270 270 270 270 270 270
237 238 239 240 241 242 244 245 247 248 249 251 253 253 252 251 252 252 253 254 254 255 256 257 258 258 258 258 258 258 258 258 258 258 258 259 259 260 261 261 261 261 260 260 259 259 259 259 259 260 261 262 263 264 265 266 267 267 268 268 269 269 270 270 271 272 274 275 276 277 278 279 279 278 278 276 275 274 274 273 272 272 272 271 271 271 271
238 239 240 241 242 243 244 245 246 247 248 249 251 252 252 252 251 251 252 252 253 253 253 254 254 255 256 257 258 259 260 261 261 261 261 261 260 260 260 261 261 261 261 261 261 261 261 261 261 261 262 262 263 264 265 265 266 267 267 268 269 269 270 271 271 272 273 274 275 276 277 277 278 278 278 277 277 276 275 274 273 273 272 271 271 271 270
240 241 241 243 243 243 244 246 247 248 248 249 250 252 252 252 252 252 252 252 253 253 253 253 254 255 255 256 257 258 259 260 261 262 263 263 264 264 263 263 263 263 263 262 262 262 262 262 262 262 262 262 263 263 264 265 265 266 266 266 266 266 267 267 268 269 270 270 271 272 272 273 273 274 274 274 275 275 274 274 273 272 271 270 270 270 270
241 241 242 243 244 244 245 246 248 249 250 251 252 252 253 254 254 254 254 254 255 255 256 256 257 257 258 258 259 259 259 259 260 261 262 262 263 264 265 266 266 266 267 267 267 267 266 266 265 265 265 264 264 264 264 264 265 266 266 266 266 265 265 265 265 265 266 267 267 268 269 269 270 270 271 271 271 271 271 271 271 270 269 268 268 268 268
242 242 243 243 244 245 246 247 248 250 251 252 252 253 254 255 255 255 255 256 256 257 257 258 258 258 259 259 259 259 260 260 260 261 261 262 262 263 264 265 265 266 267 267 268 268 268 268 269 269 269 269 269 269 269 269 270 270 271 271 271 270 270 270 270 270 270 270 271 271 271 272 272 272 272 272 272 272 272 272 271 270 270 269 268 268 267
245 245 246 246 247 247 248 248 249 250 251 252 253 254 254 255 256 256 257 257 257 257 258 258 259 259 259 259 259 259 259 260 260 261 261 262 262 263 263 264 264 265 265 266 266 266 266 267 267 267 268 268 269 270 270 271 272 273 273 273 273 273 273 272 272 273 273 273 273 273 274 274 274 275 275 275 274 273 273 272 271 271 270 269 269 268 268
246 246 247 248 249 249 250 251 251 252 253 253 254 255 256 257 257 258 258 258 259 259 259 260 260 261 261 262 262 261 261 261 261 261 262 263 263 263 264 264 264 265 265 265 265 265 266 266 266 267 267 267 268 269 269 270 270 271 271 272 272 272 273 273 273 273 273 273 273 273 274 274 275 275 275 275 275 274 274 273 272 272 270 269 268 268 268
247 247 247 247 248 248 249 250 251 252 253 254 255 256 257 258 259 259 259 260 260 260 261 261 262 263 263 264 264 264 263 263 263 263 263 263 263 264 264 265 265 265 265 265 266 266 266 267 267 267 268 268 269 269 270 270 270 270 270 271 271 272 272 272 272 273 273 273 274 274 274 274 274 274 274 274 275 275 274 273 273 272 270 269 268 267 267
250 250 249 249 249 248 248 249 249 250 251 252 254 255 256 256 257 258 259 259 260 260 261 261 262 263 263 264 264 264 264 264 263 263 263 263 263 264 264 264 265 265 265 265 266 266 267 267 267 268 269 269 269 270 270 270 270 271 271 271 271 272 272 272 272 273 273 274 274 274 275 275 275 275 275 274 274 274 274 273 272 272 271 270 269 268 267
251 251 251 251 251 250 250 249 250 251 251 252 253 253 254 255 256 257 258 258 259 260 260 261 261 262 262 263 263 264 264 264 264 263 263 262 262 263 263 263 264 264 265 265 265 266 267 267 268 268 269 269 269 270 270 271 271 272 272 272 272 272 272 273 273 273 274 274 274 274 274 274 275 274 274 273 273 273 273 273 272 272 271 270 269 268 267
252 251 251 251 252 252 252 251 251 252 252 252 253 253 254 255 255 256 257 257 258 258 259 260 260 261 261 262 263 263 264 264 264 264 264 263 263 263 262 263 263 263 264 264 265 266 267 267 268 268 269 269 270 270 271 272 272 272 272 272 273 273 273 273 273 273 274 274 274 274 274 274 273 273 273 273 272 272 272 272 272 272 271 270 269 268 266
254 253 253 252 252 253 253 253 253 253 253 253 253 254 254 255 255 255 256 256 257 257 258 258 259 260 261 261 262 263 264 264 265 265 265 265 264 264 263 263 263 263 264 264 265 265 266 267 268 268 269 270 271 272 272 272 272 272 273 273 273 273 273 274 274 274 274 274 273 273 273 273 273 273 272 272 272 271 272 272 272 272 271 270 269 268 266
256 255 254 254 253 253 253 253 253 253 254 254 254 254 255 256 256 256 256 257 257 257 258 258 259 259 260 261 262 262 263 264 264 265 265 265 265 265 265 265 265 265 265 265 265 266 266 267 268 269 270 270 271 272 272 273 273 273 274 274 274 275 275 275 275 275 275 274 274 274 274 274 274 274 274 273 273 273 273 272 272 271 270 269 268 267 265
257 256 255 255 254 254 253 253 253 253 255 256 256 256 256 257 257 258 258 258 258 259 259 259 259 260 260 261 261 262 262 263 263 264 264 265 265 265 266 266 266 266 266 267 267 267 267 268 268 269 270 270 271 272 272 273 273 274 275 275 276 276 276 276 276 276 276 276 276 275 275 275 275 275 275 274 274 274 273 272 270 269 268 267 266 265 263
259 258 257 256 255 254 254 254 253 254 255 256 258 258 258 259 259 259 260 260 260 260 260 260 261 261 261 261 262 262 262 263 263 264 264 264 265 265 266 266 267 267 267 268 268 268 269 269 269 270 270 271 271 272 272 273 274 275 275 276 276 276 277 277 277 276 276 276 276 276 276 276 276 276 276 275 275 274 273 271 270 268 267 266 265 263 262
261 260 259 258 257 257 257 257 256 255 255 256 257 258 259 259 260 260 261 261 261 261 261 261 261 262 262 262 262 263 263 263 263 264 264 265 265 266 266 267 267 268 268 268 269 269 269 270 270 271 272 272 272 273 273 274 275 275 275 276 276 277 277 277 277 277 278 278 278 277 277 277 277 277 277 277 276 275 274 272 271 269 267 266 263 262 261
263 261 260 259 259 258 258 258 258 257 257 257 258 259 259 260 260 261 261 261 261 262 262 262 262 263 263 263 263 263 264 264 264 264 264 265 265 266 266 266 267 268 268 269 269 270 270 271 272 272 273 273 273 274 274 275 275 276 276 277 277 278 278 278 278 278 278 278 278 278 278 278 279 279 278 277 277 275 274 273 272 270 268 266 265 263 263
264 263 261 260 260 259 258 258 259 259 259 259 260 260 261 261 262 262 262 262 262 262 263 263 263 263 263 263 264 264 264 264 264 264 265 265 265 265 266 266 267 268 268 269 269 270 271 272 272 273 273 274 274 274 275 275 275 276 276 277 277 277 278 278 278 278 278 278 278 279 279 280 279 279 278 278 277 276 274 272 271 270 270 269 267 265 263
265 264 263 262 262 261 260 260 260 260 261 261 261 262 262 262 263 263 264 264 264 265 265 265 264 264 265 265 265 265 265 265 265 265 265 265 265 265 266 266 267 267 268 269 270 270 271 272 272 273 273 273 273 274 274 274 274 275 275 276 277 277 277 277 277 277 277 278 278 279 280 279 279 278 278 277 276 275 274 272 271 270 269 268 267 265 263
267 266 265 264 263 263 263 262 262 262 262 262 263 263 264 264 264 264 265 265 265 265 266 266 266 266 266 266 266 266 266 266 266 266 266 266 266 266 266 266 267 267 268 269 269 270 271 271 271 272 272 272 272 273 273 274 274 275 275 276 276 276 276 276 277 277 278 278 279 279 279 279 278 278 278 277 276 275 274 273 271 269 268 267 266 265 266
267 267 266 265 264 264 264 264 264 264 264 265 265 265 266 266 266 265 265 265 266 266 266 266 267 267 267 267 267 267 267 267 267 267 267 267 268 267 267 268 268 268 269 269 270 270 271 271 271 271 272 272 272 273 273 274 274 275 275 276 276 276 276 276 277 278 278 279 280 280 280 279 278 278 278 277 276 275 274 273 271 270 268 267 267 267 266
267 266 265 265 264 264 264 264 264 265 265 266 267 266 266 266 265 265 266 266 267 267 268 268 268 268 268 268 268 268 268 268 268 268 268 269 269 269 269 269 270 270 270 270 270 271 271 271 271 272 272 272 273 273 273 274 274 275 275 275 276 276 277 277 278 278 279 280 280 280 280 280 279 279 278 277 276 275 274 273 271 270 269 268 267 266 264
269 267 266 265 264 263 262 262 262 263 265 266 266 266 265 265 265 265 266 266 267 268 268 269 269 269 269 269 269 269 269 269 269 269 269 269 270 270 270 270 270 270 271 271 271 271 271 271 271 272 272 272 273 274 274 274 275 275 275 276 277 277 277 278 278 279 280 281 281 281 280 280 280 279 279 278 278 277 275 274 272 271 270 269 268 266 264
272 269 267 265 264 263 262 262 262 263 264 266 267 266 265 265 265 265 266 266 267 268 268 269 269 269 270 269 269 269 269 269 269 269 269 270 270 270 270 270 270 270 270 270 271 271 271 271 271 272 272 272 273 274 275 276 276 276 276 276 277 277 278 279 280 281 282 282 281 281 281 281 281 281 280 279 279 278 277 275 273 272 270 269 268 266 264
275 271 268 266 264 263 262 263 264 264 265 266 267 267 267 267 267 267 267 268 268 269 270 270 270 270 270 270 270 271 271 270 270 270 270 270 269 269 269 270 270 270 271 271 271 271 271 272 272 273 273 274 274 276 276 277 277 277 277 276 277 278 279 280 281 282 283 283 283 282 282 282 283 283 282 282 280 280 278 276 275 273 271 270 268 266 264
277 274 270 267 265 265 265 265 266 266 266 266 266 267 268 269 269 270 270 270 270 271 271 271 271 271 271 272 272 272 272 272 271 271 270 270 269 269 270 270 271 271 271 271 271 271 272 273 274 275 275 276 276 277 277 277 278 277 277 277 278 279 281 282 284 285 285 285 284 284 283 283 283 283 283 283 281 280 279 278 276 274 272 270 268 266 265
279 276 273 270 267 267 267 268 268 268 268 268 268 269 269 270 271 272 272 273 273 273 273 273 273 274 274 273 273 273 272 272 272 271 271 270 270 270 270 270 271 272 272 272 272 273 274 274 276 277 278 278 278 278 278 277 277 277 278 279 280 282 283 284 285 286 286 286 286 285 284 284 282 282 282 282 281 280 279 278 277 274 272 270 268 266 265
279 277 275 273 271 270 269 270 271 271 271 270 270 270 271 271 272 274 274 275 275 275 275 275 276 276 275 275 275 274 273 272 272 271 271 270 270 270 270 270 271 272 273 273 273 274 275 276 277 278 279 279 280 279 279 278 278 278 278 279 281 283 284 285 286 286 286 285 285 284 284 284 282 281 280 281 281 281 280 278 277 276 274 272 270 267 265
279 278 276 275 273 272 271 271 271 272 272 272 271 271 272 274 275 276 276 276 276 276 276 276 276 277 277 276 276 275 274 273 272 271 271 270 270 270 271 271 271 272 273 274 274 275 276 277 278 279 279 279 280 280 280 280 279 279 279 280 281 282 284 285 285 285 284 283 283 283 283 283 282 280 278 278 279 281 281 280 278 276 276 275 273 269 266
278 278 277 276 274 273 272 272 272 272 272 273 273 274 275 275 276 276 277 277 277 276 276 277 277 277 278 277 277 276 275 274 273 272 271 271 271 271 271 272 272 273 273 274 275 276 277 278 278 279 279 280 280 280 281 281 281 280 280 280 281 282 283 284 283 283 282 281 281 280 280 281 282 281 279 277 276 277 279 279 278 277 276 275 272 268 265
280 278 277 276 275 273 272 272 272 272 273 273 274 276 277 277 277 277 278 278 278 277 277 277 278 278 278 278 278 277 276 276 275 274 273 272 272 272 272 272 273 273 274 274 275 276 277 278 279 279 279 280 280 281 281 281 282 282 281 281 281 282 283 283 283 282 280 279 278 277 276 277 279 280 279 278 276 274 274 276 276 276 275 273 271 267 265
283 281 279 277 275 274 273 272 271 272 273 274 275 276 277 278 278 278 278 278 278 278 278 278 278 278 278 279 279 279 278 278 277 276 276 275 274 274 274 273 273 273 274 275 275 276 277 278 279 280 280 280 280 281 281 282 282 282 282 282 282 282 282 283 283 283 281 279 277 275 273 272 272 274 275 277 276 274 273 272 272 272 272 271 268 265 264
287 284 282 279 277 275 274 273 272 272 273 274 275 276 276 277 278 279 279 279 279 279 279 279 278 278 279 279 280 280 279 279 279 278 277 277 276 276 276 275 275 275 274 275 275 276 277 278 279 279 280 281 281 281 281 282 282 282 283 283 283 283 283 283 283 283 283 281 279 277 274 271 268 266 267 269 272 273 273 271 269 268 267 267 267 265 264
288 285 284 283 281 279 278 276 274 274 274 274 275 275 276 277 278 279 280 280 281 280 280 280 279 279 279 279 280 279 279 279 278 278 278 278 277 277 277 277 276 276 276 276 276 276 277 278 278 279 280 280 281 281 282 282 282 282 283 283 283 283 283 283 283 283 283 283 281 279 277 274 270 266 263 262 264 266 268 269 269 267 266 265 265 264 263
289 287 286 285 284 283 282 280 278 278 277 277 277 278 278 278 279 280 281 281 281 281 281 281 280 279 279 278 278 278 278 278 277 278 278 278 278 278 277 277 277 277 277 277 277 277 277 278 278 279 279 280 280 281 282 282 282 282 283 282 282 281 281 282 282 283 283 283 282 281 279 277 274 270 267 263 261 261 262 264 265 265 265 264 263 264 263
293 291 289 288 287 285 285 284 283 281 280 279 279 280 280 280 280 281 282 282 281 281 281 280 279 279 278 277 277 277 277 277 276 276 276 277 278 278 278 278 278 277 278 278 278 278 278 278 278 278 279 279 280 280 281 281 282 282 282 282 282 281 280 280 280 280 281 282 283 283 282 281 279 276 272 268 264 261 259 259 260 261 261 261 260 261 262
293 292 291 291 289 288 286 285 284 283 282 280 280 280 281 281 281 281 281 282 281 281 280 279 278 277 277 276 276 276 276 276 276 276 276 276 277 277 278 278 279 278 278 278 278 278 278 278 278 278 278 279 279 280 280 281 281 281 281 282 281 281 280 280 279 278 279 280 281 282 283 283 283 281 279 275 271 266 261 258 256 256 257 258 257 257 257
293 292 291 290 290 289 289 288 286 284 283 281 281 280 281 281 281 281 281 281 281 280 279 278 277 276 275 274 274 275 275 276 276 276 276 276 276 277 277 278 278 278 278 278 277 277 277 278 278 278 278 278 278 279 279 280 280 280 281 281 281 281 280 280 279 278 278 277 277 278 279 280 281 281 280 279 277 274 269 265 260 256 254 254 254 254 254
Height
10452 10454 10455 10456 10457 10459 10462 10463 10464 10466 10469 10472 10474 10477 10478 10480 10480 10482 10486 10487 10488 10490 10495 10498 10500 10503 10507 10511 10511 10511 10510 10511 10512 10515 10519 10521 10522 10524 10526 10527 10528 10529 10531 10534 10536 10537 10538 10540 10540 10540 10540 10540 10540 10540 10541 10542 10541 10540 10541 10542 10541 10541 10541 10541 10543 10544 10546 10546 10546 10544 10543 10543 10543 10543 10543 10544 10544 10544 10544 10545 10547 10548 10548 10548 10548 10548 10548
10446 10448 10449 10450 10451 10453 10456 10458 10459 10461 10464 10467 10470 10472 10475 10477 10476 10476 10478 10481 10482 10485 10488 10489 10491 10493 10495 10498 10500 10502 10504 10504 10506 10509 10512 10514 10515 10516 10517 10518 10519 10521 10523 10525 10527 10528 10529 10530 10530 10530 10531 10532 10531 10531 10533 10535 10534 10533 10534 10535 10535 10535 10535 10535 10536 10537 10538 10538 10538 10537 10536 10537 10537 10535 10535 10536 10536 10536 10537 10538 10539 10540 10540 10540 10540 10540 10540
10439 10442 10443 10444 10446 10447 10450 10452 10454 10456 10458 10461 10465 10468 10471 10472 10469 10469 10472 10475 10476 10478 10481 10482 10484 10485 10487 10489 10490 10493 10495 10497 10499 10502 10505 10506 10508 10509 10509 10510 10512 10513 10515 10517 10518 10519 10520 10521 10521 10521 10522 10522 10522 10523 10524 10526 10527 10528 10527 10528 10528 10529 10528 10528 10528 10528 10528 10529 10530 10530 10529 10529 10529 10528 10528 10528 10528 10529 10530 10530 10531 10532 10533 10533 10532 10532 10532
10433 10434 10435 10437 10439 10441 10444 10447 10449 10450 10451 10455 10459 10461 10463 10464 10463 10463 10466 10467 10469 10471 10474 10475 10477 10479 10481 10481 10482 10484 10486 10488 10491 10495 10497 10499 10500 10501 10502 10503 10505 10506 10507 10509 10510 10511 10512 10512 10512 10512 10512 10513 10513 10514 10515 10516 10518 10519 10519 10519 10520 10520 10520 10521 10520 10519 10519 10519 10520 10520 10520 10520 10520 10520 10520 10520 10520 10521 10522 10523 10523 10523 10524 10524 10524 10525 10524
10426 10427 10428 10430 10431 10434 10438 10441 10442 10444 10445 10447 10450 10453 10455 10456 10456 10456 10458 10461 10463 10465 10465 10466 10469 10473 10475 10476 10477 10478 10478 10479 10483 10488 10490 10491 10491 10492 10494 10497 10498 10498 10499 10500 10501 10502 10502 10502 10502 10501 10502 10503 10504 10505 10505 10506 10507 10508 10509 10510 10511 10510 10511 10511 10510 10510 10510 10510 10510 10510 10511 10511 10511 10511 10511 10511 10512 10513 10514 10515 10514 10514 10515 10515 10516 10518 10516
10418 10419 10421 10423 10425 10429 10433 10434 10434 10436 10437 10439 10442 10445 10447 10449 10450 10450 10452 10455 10457 10457 10457 10459 10464 10468 10470 10470 10470 10471 10471 10472 10475 10479 10481 10482 10483 10485 10488 10490 10491 10491 10491 10491 10490 10490 10491 10491 10491 10492 10492 10493 10494 10494 10495 10495 10496 10497 10499 10500 10501 10501 10501 10501 10501 10500 10500 10500 10500 10500 10501 10502 10502 10502 10503 10504 10504 10505 10506 10506 10504 10504 10506 10506 10507 10508 10507
10411 10412 10414 10417 10421 10424 10424 10424 10424 10426 10430 10432 10435 10437 10438 10440 10442 10443 10445 10447 10450 10451 10452 10454 10457 10460 10463 10463 10463 10463 10464 10466 10468 10470 10472 10474 10476 10479 10481 10483 10484 10483 10481 10480 10479 10480 10480 10481 10482 10482 10482 10483 10484 10484 10484 10485 10486 10487 10490 10492 10491 10490 10491 10490 10490 10490 10490 10490 10490 10491 10492 10493 10493 10494 10495 10495 10495 10496 10497 10497 10497 10496 10496 10496 10498 10499 10497
10403 10404 10406 10410 10413 10415 10415 10416 10417 10419 10424 10426 10426 10427 10429 10431 10433 10434 10435 10439 10442 10444 10446 10448 10449 10451 10454 10457 10457 10457 10457 10459 10462 10463 10464 10466 10468 10471 10472 10474 10475 10476 10472 10469 10470 10470 10471 10471 10472 10472 10473 10473 10473 10473 10474 10474 10475 10476 10480 10481 10479 10478 10480 10480 10479 10480 10481 10480 10480 10481 10483 10484 10484 10485 10486 10485 10485 10486 10488 10489 10489 10489 10488 10488 10489 10489 10489
10395 10397 10400 10403 10406 10407 10408 10409 10410 10412 10416 10417 10416 10417 10420 10423 10424 10425 10427 10431 10434 10436 10439 10441 10440 10441 10446 10449 10450 10451 10452 10453 10455 10456 10457 10458 10459 10461 10463 10464 10466 10467 10465 10462 10461 10461 10461 10460 10460 10461 10461 10462 10462 10463 10463 10464 10464 10465 10468 10469 10467 10468 10470 10470 10469 10470 10470 10470 10470 10472 10473 10474 10475 10476 10476 10476 10476 10477 10478 10478 10479 10480 10480 10481 10481 10481 10481
10388 10391 10395 10397 10398 10399 10400 10401 10403 10405 10407 10408 10407 10409 10412 10413 10414 10417 10420 10423 10424 10426 10429 10432 10432 10434 10438 10441 10443 10445 10445 10445 10446 10447 10449 10450 10451 10452 10453 10455 10456 10456 10456 10455 10453 10452 10451 10451 10450 10450 10450 10450 10450 10451 10452 10453 10453 10454 10455 10456 10456 10457 10458 10458 10459 10459 10459 10459 10461 10463 10463 10463 10464 10465 10465 10465 10465 10466 10467 10468 10469 10470 10471 10472 10473 10473 10472
10383 10385 10388 10389 10389 10390 10392 10394 10395 10395 10396 10398 10399 10401 10404 10404 10405 10410 10415 10416 10415 10417 10420 10422 10425 10429 10432 10435 10436 10436 10435 10434 10436 10437 10439 10441 10442 10442 10444 10445 10445 10445 10446 10447 10446 10445 10444 10444 10443 10442 10441 10441 10441 10441 10441 10441 10441 10442 10443 10444 10445 10445 10445 10445 10446 10446 10447 10448 10450 10451 10451 10451 10452 10454 10453 10454 10454 10455 10457 10458 10458 10459 10460 10461 10462 10462 10463
10375 10376 10378 10379 10380 10381 10384 10387 10387 10384 10385 10389 10392 10395 10397 10397 10399 10405 10409 10408 10407 10409 10412 10414 10418 10423 10426 10428 10426 10425 10424 10425 10426 10428 10429 10431 10432 10433 10434 10435 10436 10437 10438 10438 10438 10437 10436 10436 10435 10434 10434 10434 10433 10433 10433 10433 10433 10433 10433 10433 10433 10433 10433 10433 10433 10433 10434 10435 10436 10438 10438 10439 10441 10442 10443 10444 10444 10445 10447 10448 10448 10449 10449 10449 10450 10450 10450
10365 10366 10369 10371 10372 10374 10376 10379 10380 10378 10377 10380 10385 10390 10391 10392 10396 10400 10400 10400 10401 10402 10404 10406 10410 10414 10417 10416 10414 10414 10415 10417 10418 10419 10420 10421 10423 10425 10426 10426 10427 10428 10428 10429 10428 10428 10428 10427 10426 10426 10425 10425 10425 10425 10425 10425 10425 10424 10423 10423 10423 10423 10423 10422 10422 10422 10422 10422 10423 10424 10425 10427 10429 10431 10432 10433 10434 10434 10436 10437 10438 10438 10438 10439 10439 10439 10438
10358 10359 10361 10363 10364 10367 10369 10371 10372 10372 10371 10372 10376 10382 10384 10387 10391 10392 10391 10393 10395 10395 10395 10397 10399 10402 10405 10405 10404 10405 10406 10408 10409 10410 10412 10413 10414 10415 10416 10417 10417 10418 10419 10419 10419 10419 10418 10418 10417 10417 10417 10417 10416 10416 10416 10416 10416 10415 10415 10415 10415 10414 10413 10413 10413 10412 10412 10411 10412 10413 10414 10415 10417 10419 10420 10421 10422 10422 10423 10424 10426 10427 10427 10428 10428 10428 10428
10353 10352 10354 10355 10357 10361 10363 10363 10363 10365 10366 10365 10366 10371 10375 10380 10383 10383 10382 10385 10387 10387 10387 10389 10390 10392 10394 10395 10396 10396 10397 10399 10401 10402 10403 10404 10405 10406 10406 10407 10407 10408 10409 10409 10409 10409 10409 10408 10408 10408 10408 10408 10407 10407 10407 10406 10406 10406 10406 10406 10406 10405 10405 10404 10404 10404 10404 10403 10403 10403 10403 10404 10405 10406 10407 10408 10409 10410 10411 10412 10414 10415 10417 10417 10416 10417 10417
10345 10346 10346 10347 10351 10354 10354 10353 10354 10355 10357 10358 10359 10362 10366 10370 10373 10373 10373 10375 10377 10377 10378 10379 10380 10381 10383 10385 10387 10388 10389 10390 10391 10392 10393 10394 10395 10396 10397 10397 10397 10398 10399 10399 10399 10399 10399 10398 10398 10398 10398 10398 10397 10397 10396 10396 10396 10397 10398 10398 10397 10397 10397 10396 10396 10396 10395 10394 10394 10394 10393 10393 10393 10395 10395 10395 10396 10397 10398 10399 10401 10403 10404 10405 10405 10405 10405
10337 10338 10339 10339 10343 10346 10345 10344 10345 10346 10348 10350 10352 10354 10355 10358 10361 10364 10365 10365 10365 10366 10368 10369 10371 10372 10373 10375 10379 10380 10381 10382 10382 10383 10384 10384 10385 10386 10387 10387 10387 10387 10388 10389 10389 10389 10389 10388 10388 10388 10388 10388 10387 10387 10387 10386 10387 10388 10389 10390 10390 10390 10390 10389 10388 10387 10386 10385 10385 10384 10383 10383 10383 10384 10384 10384 10384 10385 10385 10386 10387 10389 10391 10392 10392 10392 10392
10327 10329 10330 10331 10333 10336 10337 10337 10337 10338 10340 10343 10344 10345 10346 10348 10352 10355 10356 10355 10356 10357 10358 10360 10362 10363 10364 10366 10369 10371 10373 10374 10374 10375 10376 10375 10375 10376 10377 10377 10376 10376 10377 10378 10378 10378 10377 10377 10376 10377 10377 10376 10375 10375 10376 10376 10377 10378 10380 10380 10381 10380 10380 10379 10378 10377 10377 10376 10375 10374 10373 10372 10372 10373 10373 10373 10374 10374 10373 10373 10373 10375 10378 10380 10381 10380 10379
10317 10319 10320 10320 10322 10325 10328 10330 10330 10331 10332 10334 10335 10335 10337 10340 10342 10344 10345 10346 10347 10348 10348 10350 10352 10353 10354 10356 10358 10360 10362 10363 10365 10367 10367 10366 10365 10366 10368 10367 10367 10367 10367 10368 10368 10367 10366 10366 10366 10365 10364 10364 10363 10363 10364 10365 10366 10367 10368 10368 10368 10367 10366 10366 10365 10364 10364 10363 10362 10361 10360 10359 10360 10360 10360 10360 10361 10361 10361 10360 10360 10361 10364 10367 10367 10366 10365
10307 10310 10312 10313 10315 10317 10320 10322 10323 10322 10323 10324 10325 10325 10327 10330 10332 10334 10335 10335 10336 10337 10338 10339 10340 10341 10343 10345 10346 10348 10351 10353 10355 10356 10356 10355 10355 10356 10357 10357 10356 10357 10357 10357 10357 10356 10355 10354 10355 10354 10353 10353 10353 10354 10355 10356 10356 10356 10356 10356 10355 10354 10353 10353 10352 10351 10350 10349 10349 10348 10347 10346 10347 10347 10346 10345 10345 10346 10346 10345 10346 10348 10351 10352 10353 10353 10352
10297 10301 10303 10305 10307 10309 10311 10314 10315 10314 10313 10314 10315 10316 10318 10320 10322 10324 10324 10325 10325 10326 10327 10328 10328 10329 10331 10332 10333 10335 10339 10342 10344 10345 10345 10343 10343 10344 10345 10345 10345 10345 10345 10345 10344 10343 10342 10342 10343 10342 10342 10342 10343 10344 10345 10346 10346 10346 10345 10344 10343 10342 10341 10340 10339 10338 10336 10335 10335 10335 10335 10334 10333 10334 10333 10331 10330 10330 10330 10330 10331 10334 10336 10336 10338 10341 10339
10287 10290 10293 10294 10296 10298 10301 10303 10304 10304 10304 10304 10306 10307 10309 10310 10311 10312 10312 10313 10314 10315 10315 10316 10317 10318 10319 10319 10319 10321 10324 10328 10331 10332 10332 10331 10330 10331 10332 10332 10332 10332 10332 10330 10329 10329 10329 10329 10329 10329 10329 10330 10332 10332 10332 10332 10332 10333 10332 10332 10331 10330 10328 10327 10325 10324 10323 10322 10321 10321 10321 10320 10319 10319 10320 10318 10316 10315 10315 10315 10315 10317 10319 10320 10323 10327 10325
10278 10281 10282 10284 10285 10288 10290 10291 10292 10293 10293 10294 10295 10297 10297 10298 10298 10299 10299 10301 10303 10304 10304 10305 10306 10307 10307 10307 10306 10306 10309 10313 10316 10318 10318 10317 10317 10318 10318 10318 10318 10318 10317 10316 10316 10315 10315 10316 10316 10316 10317 10318 10318 10318 10317 10317 10318 10318 10318 10318 10317 10315 10314 10312 10312 10311 10310 10309 10307 10306 10305 10305 10304 10304 10305 10305 10303 10300 10298 10299 10300 10301 10302 10304 10307 10310 10311
10269 10272 10272 10273 10275 10277 10279 10281 10282 10282 10283 10283 10284 10285 10286 10286 10287 10287 10288 10290 10292 10292 10292 10293 10294 10295 10295 10294 10294 10294 10295 10297 10301 10303 10303 10303 10304 10304 10304 10303 10304 10303 10302 10302 10302 10302 10302 10303 10303 10304 10305 10304 10304 10303 10303 10304 10305 10304 10304 10303 10302 10300 10299 10299 10298 10297 10296 10295 10293 10291 10291 10290 10290 10289 10289 10290 10289 10287 10284 10284 10285 10286 10287 10289 10291 10293 10297
10261 10263 10263 10264 10265 10266 10269 10271 10272 10272 10272 10273 10274 10275 10275 10275 10276 10277 10278 10279 10280 10281 10281 10281 10282 10283 10282 10282 10283 10283 10283 10284 10286 10287 10288 10290 10290 10290 10290 10290 10290 10290 10289 10290 10290 10290 10290 10291 10291 10291 10291 10290 10290 10290 10291 10292 10291 10290 10288 10287 10287 10286 10286 10285 10284 10283 10282 10281 10279 10278 10277 10276 10275 10274 10274 10274 10275 10274 10272 10271 10272 10272 10273 10274 10276 10278 10280
10252 10254 10254 10255 10256 10257 10259 10262 10263 10262 10262 10262 10264 10264 10264 10264 10265 10267 10267 10268 10268 10269 10270 10271 10271 10271 10270 10271 10272 10272 10272 10273 10274 10274 10275 10276 10276 10276 10276 10277 10277 10277 10277 10278 10278 10278 10278 10278 10277 10277 10278 10278 10278 10279 10279 10278 10277 10275 10274 10273 10273 10273 10272 10272 10271 10269 10268 10267 10265 10264 10263 10262 10261 10260 10260 10259 10260 10261 10261 10260 10260 10260 10259 10260 10261 10263 10264
10245 10245 10245 10246 10247 10248 10250 10252 10253 10252 10252 10252 10253 10254 10254 10254 10255 10256 10257 10257 10258 10259 10260 10261 10261 10261 10261 10261 10262 10262 10262 10262 10262 10263 10263 10263 10263 10263 10263 10264 10264 10265 10265 10266 10266 10266 10265 10265 10265 10266 10266 10267 10267 10266 10265 10264 10263 10262 10261 10260 10260 10259 10259 10258 10257 10256 10254 10253 10252 10250 10249 10248 10247 10247 10247 10247 10247 10248 10249 10248 10247 10248 10246 10246 10247 10249 10250
10237 10237 10237 10237 10239 10239 10240 10242 10244 10244 10244 10243 10243 10245 10247 10246 10246 10247 10248 10248 10249 10250 10251 10252 10251 10251 10252 10252 10251 10252 10252 10252 10252 10252 10252 10251 10251 10251 10252 10252 10253 10253 10253 10254 10254 10254 10254 10254 10255 10255 10255 10255 10255 10254 10253 10252 10251 10250 10249 10248 10247 10247 10246 10245 10244 10243 10242 10240 10239 10238 10237 10236 10235 10235 10235 10234 10235 10236 10237 10235 10235 10235 10234 10233 10235 10237 10235
10230 10230 10229 10230 10230 10230 10231 10233 10235 10236 10236 10236 10235 10237 10238 10238 10238 10239 10239 10239 10240 10241 10242 10242 10242 10241 10242 10242 10242 10242 10243 10243 10242 10242 10242 10242 10242 10242 10242 10242 10242 10242 10243 10243 10243 10243 10243 10243 10244 10244 10244 10245 10244 10243 10242 10241 10240 10239 10238 10237 10236 10235 10235 10234 10232 10231 10230 10229 10228 10226 10225 10224 10224 10223 10223 10223 10223 10224 10224 10223 10223 10223 10222 10223 10225 10224 10222
10223 10223 10223 10223 10224 10224 10224 10226 10227 10228 10228 10228 10228 10229 10230 10230 10230 10231 10231 10231 10232 10232 10232 10233 10233 10232 10233 10233 10233 10233 10233 10233 10233 10233 10232 10233 10233 10233 10232 10232 10232 10233 10233 10233 10233 10233 10233 10233 10234 10234 10234 10234 10233 10232 10232 10231 10230 10229 10228 10227 10226 10225 10224 10223 10222 10220 10219 10218 10217 10215 10214 10213 10213 10213 10212 10211 10211 10212 10212 10211 10211 10211 10211 10211 10212 10212 10212
10216 10217 10217 10217 10217 10217 10218 10219 10219 10219 10220 10220 10220 10221 10222 10222 10222 10223 10223 10223 10223 10223 10224 10224 10224 10223 10224 10224 10224 10224 10224 10223 10223 10223 10224 10224 10224 10223 10223 10223 10224 10224 10224 10224 10224 10224 10224 10224 10225 10225 10225 10225 10224 10222 10222 10222 10221 10220 10219 10218 10216 10215 10214 10213 10212 10211 10210 10208 10206 10205 10204 10203 10203 10203 10202 10201 10201 10201 10201 10201 10200 10200 10200 10200 10202 10203 10204
10210 10210 10211 10211 10211 10211 10212 10212 10212 10212 10213 10213 10213 10214 10215 10215 10215 10215 10215 10215 10216 10216 10216 10216 10215 10215 10215 10216 10216 10215 10215 10214 10214 10215 10215 10215 10214 10214 10215 10215 10215 10215 10215 10215 10215 10215 10215 10216 10216 10216 10216 10215 10214 10214 10214 10213 10212 10211 10210 10209 10208 10207 10205 10204 10203 10202 10200 10199 10197 10196 10195 10195 10194 10193 10192 10192 10191 10191 10191 10191 10191 10190 10190 10192 10193 10194 10194
10203 10204 10204 10205 10205 10205 10205 10206 10206 10206 10206 10206 10206 10207 10207 10207 10208 10208 10207 10208 10208 10208 10208 10208 10208 10208 10208 10208 10208 10207 10207 10206 10206 10206 10206 10206 10206 10206 10206 10206 10207 10207 10207 10207 10207 10207 10207 10208 10208 10208 10208 10207 10206 10205 10205 10205 10204 10203 10202 10201 10200 10198 10197 10196 10195 10193 10192 10191 10189 10188 10188 10186 10185 10184 10184 10183 10182 10182 10182 10183 10183 10183 10183 10183 10183 10182 10183
10198 10198 10198 10198 10198 10198 10199 10200 10200 10199 10199 10199 10199 10200 10200 10200 10201 10201 10201 10200 10200 10200 10200 10200 10200 10200 10200 10200 10200 10199 10199 10198 10198 10198 10198 10198 10198 10198 10198 10198 10198 10199 10199 10199 10199 10199 10199 10200 10200 10200 10199 10199 10198 10198 10197 10197 10196 10195 10194 10193 10192 10190 10189 10188 10187 10186 10185 10183 10182 10181 10180 10178 10177 10177 10176 10175 10174 10173 10174 10174 10174 10174 10174 10173 10173 10174 10177
10192 10192 10192 10192 10192 10192 10192 10193 10193 10193 10192 10192 10193 10194 10194 10194 10194 10194 10193 10193 10193 10193 10193 10193 10193 10193 10193 10193 10192 10192 10191 10191 10191 10190 10190 10190 10190 10190 10190 10191 10191 10191 10191 10191 10191 10191 10191 10192 10192 10192 10191 10190 10190 10190 10189 10189 10188 10187 10187 10186 10184 10183 10181 10181 10180 10179 10178 10177 10175 10174 10172 10170 10169 10169 10169 10167 10166 10166 10166 10166 10166 10166 10165 10165 10166 10169 10171
10187 10187 10186 10186 10186 10187 10186 10186 10186 10186 10186 10186 10187 10188 10188 10187 10187 10186 10186 10187 10186 10186 10186 10186 10186 10186 10186 10186 10185 10185 10184 10184 10184 10183 10183 10183 10183 10183 10183 10183 10183 10183 10183 10183 10183 10183 10183 10184 10184 10184 10183 10183 10182 10182 10182 10182 10181 10180 10179 10178 10177 10175 10174 10174 10173 10172 10171 10170 10169 10167 10165 10163 10162 10162 10161 10160 10159 10159 10159 10158 10158 10158 10158 10158 10160 10162 10162
10182 10181 10181 10180 10181 10181 10181 10180 10180 10180 10180 10180 10181 10182 10181 10181 10180 10180 10180 10180 10180 10180 10180 10180 10180 10180 10179 10179 10179 10178 10177 10177 10177 10176 10176 10176 10176 10176 10176 10176 10176 10176 10176 10176 10176 10176 10176 10176 10176 10177 10176 10176 10175 10175 10174 10174 10174 10173 10172 10171 10170 10169 10168 10167 10166 10166 10165 10164 10163 10161 10159 10156 10155 10155 10155 10154 10152 10152 10152 10152 10152 10152 10151 10152 10154 10155 10154
10176 10176 10175 10175 10175 10175 10175 10174 10174 10175 10175 10175 10175 10175 10175 10175 10174 10174 10174 10174 10174 10174 10174 10174 10174 10174 10173 10173 10172 10172 10171 10170 10170 10170 10170 10170 10170 10170 10170 10169 10169 10170 10170 10169 10169 10169 10169 10169 10169 10170 10169 10169 10169 10168 10167 10167 10167 10166 10166 10165 10164 10162 10161 10161 10160 10160 10159 10158 10156 10155 10154 10151 10149 10148 10149 10148 10146 10146 10145 10145 10145 10145 10145 10146 10147 10148 10148
10170 10170 10170 10170 10169 10169 10169 10169 10169 10169 10170 10170 10169 10169 10169 10169 10169 10168 10168 10168 10168 10168 10168 10168 10168 10168 10168 10167 10166 10166 10165 10164 10164 10164 10164 10164 10164 10163 10163 10163 10163 10163 10163 10163 10163 10163 10163 10163 10163 10163 10163 10163 10163 10162 10161 10161 10160 10160 10159 10159 10158 10157 10156 10155 10154 10154 10153 10152 10150 10149 10148 10146 10144 10142 10142 10142 10141 10140 10140 10139 10139 10140 10140 10140 10141 10141 10142
10164 10164 10164 10164 10164 10164 10163 10163 10163 10164 10164 10164 10164 10164 10163 10163 10163 10162 10162 10162 10163 10163 10163 10162 10162 10162 10162 10161 10160 10160 10159 10158 10158 10158 10158 10158 10158 10158 10157 10157 10157 10157 10157 10157 10157 10157 10157 10157 10157 10156 10156 10156 10156 10156 10155 10155 10154 10153 10153 10152 10152 10151 10150 10149 10148 10148 10147 10146 10144 10143 10142 10141 10140 10138 10137 10137 10137 10136 10134 10134 10134 10134 10135 10135 10135 10136 10136
10158 10158 10159 10159 10159 10158 10158 10158 10158 10158 10158 10159 10159 10158 10158 10158 10157 10157 10157 10157 10157 10157 10157 10157 10156 10156 10156 10155 10154 10154 10153 10153 10152 10152 10152 10152 10152 10152 10152 10152 10151 10151 10151 10151 10151 10151 10151 10151 10151 10150 10150 10150 10150 10149 10149 10149 10148 10147 10147 10146 10146 10145 10144 10144 10143 10142 10141 10140 10139 10138 10137 10136 10135 10134 10133 10132 10132 10131 10130 10129 10129 10129 10129 10130 10130 10130 10130
10152 10153 10153 10153 10154 10153 10153 10152 10152 10152 10153 10153 10153 10153 10152 10152 10152 10152 10152 10151 10151 10151 10151 10151 10151 10150 10150 10149 10149 10148 10147 10147 10147 10146 10146 10146 10146 10146 10146 10146 10146 10145 10145 10146 10146 10145 10145 10146 10145 10145 10144 10144 10144 10143 10143 10143 10142 10142 10141 10141 10140 10140 10139 10138 10137 10137 10136 10135 10134 10133 10132 10131 10131 10130 10129 10128 10127 10127 10126 10126 10125 10124 10124 10125 10125 10125 10125
10147 10147 10147 10148 10148 10148 10148 10148 10147 10147 10147 10147 10147 10147 10147 10147 10147 10147 10146 10146 10146 10146 10146 10145 10145 10145 10144 10144 10143 10142 10142 10141 10141 10141 10141 10141 10141 10141 10141 10141 10140 10140 10140 10140 10140 10140 10140 10140 10140 10140 10139 10139 10138 10138 10137 10137 10137 10137 10136 10136 10135 10135 10134 10134 10133 10132 10131 10131 10130 10129 10128 10127 10126 10126 10125 10124 10123 10123 10122 10122 10121 10121 10120 10120 10120 10121 10121
10142 10142 10142 10143 10143 10143 10143 10142 10142 10142 10141 10141 10141 10141 10141 10142 10141 10141 10141 10141 10140 10140 10140 10140 10139 10139 10139 10138 10138 10137 10136 10136 10136 10136 10135 10135 10135 10135 10135 10135 10135 10135 10135 10135 10135 10135 10135 10135 10135 10134 10134 10133 10133 10133 10132 10132 10131 10131 10131 10131 10130 10130 10130 10129 10128 10128 10127 10126 10125 10125 10124 10123 10121 10121 10121 10120 10120 10119 10119 10118 10118 10118 10117 10117 10117 10117 10117
10137 10137 10137 10137 10138 10138 10138 10137 10137 10136 10136 10136 10136 10136 10135 10135 10136 10136 10136 10135 10135 10135 10134 10134 10134 10134 10133 10133 10133 10132 10131 10131 10130 10130 10130 10130 10130 10130 10130 10129 10129 10129 10129 10129 10129 10129 10129 10129 10129 10129 10129 10129 10128 10128 10127 10127 10126 10126 10126 10125 10125 10125 10125 10124 10124 10123 10122 10122 10121 10121 10120 10119 10118 10117 10116 10116 10116 10116 10115 10115 10115 10114 10114 10114 10114 10114 10114
10132 10132 10132 10132 10132 10132 10133 10133 10132 10131 10131 10131 10131 10131 10130 10130 10130 10130 10130 10130 10129 10129 10129 10129 10129 10128 10128 10128 10127 10127 10126 10126 10125 10125 10125 10124 10124 10124 10124 10124 10124 10124 10124 10124 10124 10124 10124 10124 10124 10124 10124 10124 10123 10123 10123 10122 10121 10121 10120 10120 10120 10120 10120 10119 10119 10118 10118 10117 10117 10116 10116 10115 10115 10113 10112 10112 10112 10112 10112 10112 10111 10111 10111 10111 10111 10111 10111
10128 10127 10127 10127 10127 10127 10128 10128 10127 10127 10127 10126 10126 10126 10126 10125 10125 10125 10125 10125 10125 10124 10124 10123 10123 10123 10123 10123 10122 10122 10122 10121 10120 10120 10119 10119 10119 10119 10119 10119 10119 10119 10119 10119 10119 10118 10118 10119 10119 10119 10119 10118 10118 10118 10118 10118 10117 10117 10116 10116 10115 10115 10115 10115 10114 10114 10113 10113 10112 10112 10111 10111 10111 10110 10109 10109 10108 10108 10108 10108 10108 10108 10108 10108 10108 10108 10108
10124 10123 10122 10122 10122 10123 10123 10123 10123 10122 10122 10121 10121 10121 10121 10120 10120 10120 10120 10120 10119 10119 10119 10118 10118 10118 10118 10118 10117 10117 10117 10116 10116 10115 10115 10114 10114 10114 10114 10114 10113 10113 10113 10113 10113 10113 10113 10113 10113 10113 10113 10113 10113 10113 10113 10113 10113 10112 10112 10111 10111 10110 10110 10110 10109 10109 10109 10108 10108 10107 10107 10107 10106 10106 10106 10105 10105 10104 10104 10104 10104 10104 10104 10104 10105 10105 10105
10120 10119 10118 10118 10118 10118 10118 10118 10118 10118 10118 10117 10116 10116 10116 10115 10115 10114 10115 10114 10114 10114 10114 10113 10113 10113 10113 10113 10112 10112 10112 10111 10111 10111 10110 10110 10109 10109 10109 10109 10108 10108 10108 10108 10108 10108 10108 10108 10108 10108 10108 10108 10108 10108 10108 10108 10108 10108 10107 10107 10107 10106 10106 10105 10105 10104 10104 10104 10103 10103 10103 10102 10102 10102 10102 10102 10101 10101 10101 10101 10101 10101 10101 10101 10101 10101 10102
10115 10115 10114 10114 10113 10113 10113 10113 10113 10113 10113 10112 10111 10110 10110 10110 10109 10109 10109 10109 10109 10109 10108 10108 10108 10108 10108 10108 10107 10107 10107 10106 10106 10106 10106 10105 10105 10105 10104 10104 10104 10104 10103 10103 10103 10103 10103 10103 10102 10102 10102 10103 10103 10103 10103 10103 10103 10103 10103 10102 10102 10102 10101 10101 10101 10100 10100 10099 10099 10099 10098 10098 10098 10098 10098 10098 10098 10097 10097 10097 10097 10097 10097 10097 10098 10098 10098
10112 10111 10110 10109 10108 10108 10108 10108 10109 10108 10108 10107 10106 10106 10105 10105 10104 10104 10104 10103 10103 10103 10103 10103 10103 10103 10103 10102 10102 10102 10101 10101 10101 10101 10101 10101 10101 10100 10100 10099 10099 10099 10099 10099 10098 10098 10098 10098 10098 10097 10097 10098 10098 10098 10098 10098 10098 10098 10098 10098 10097 10097 10097 10097 10096 10096 10096 10096 10095 10095 10094 10094 10094 10094 10094 10094 10094 10094 10094 10094 10094 10094 10094 10094 10094 10094 10095
10107 10107 10106 10105 10104 10103 10103 10103 10103 10103 10103 10102 10102 10101 10100 10100 10099 10099 10099 10099 10098 10097 10097 10097 10097 10097 10097 10097 10097 10096 10096 10096 10096 10096 10096 10096 10096 10095 10095 10095 10095 10094 10094 10094 10094 10093 10093 10093 10093 10093 10093 10093 10093 10093 10093 10093 10093 10093 10093 10093 10093 10092 10092 10092 10091 10091 10091 10091 10091 10091 10090 10090 10090 10090 10090 10090 10090 10090 10090 10091 10091 10091 10091 10091 10091 10091 10091